Probability
0 0 0 0 0 0 0 0 0 0 0 0 0 0 0 0 0 0 0 0 0 0 0 0 0 0 0 0 0 0 0 0 0 0 0 0 0 0 0 0 0 0 0 0
0 0 0 0 0 0 0 0 0 0 0 0 0 0 0 0 0 0 0 0 0 0 0 0 0 0 0 0 0 0 0 0 0 0 0 0 0 0 0 0 0 0 0 0
0 0 0 0 0 0 0 0 0 0 0 0 0 0 0 0 0 0 0 0 0 0 0 0 0 0 0 0 0 0 0 0 0 0 0 0 0 0 0 0 0 0 0 0
0 0 0 0 0 0 0 0 0 0 0 0 0 0 0 0 0 0 0 0 0 0 0 0 0 1 1 1 0 0 0 0 0 0 0 0 0 0 0 0 0 0 0 0
0 0 0 0 0 0 0 0 0 0 0 0 0 0 0 0 0 0 0 0 0 0 0 0 1 1 2 1 0 0 0 0 0 0 0 0 0 0 0 0 0 0 0 0
0 0 0 0 0 0 0 0 0 0 0 0 0 0 0 0 0 0 0 0 0 0 0 1 2 3 2 1 1 0 0 0 0 0 0 0 0 0 0 0 0 0 0 0
0 0 0 0 0 0 0 0 0 0 0 0 0 0 0 0 0 0 0 0 0 1 1 2 4 6 5 4 2 1 0 0 0 0 0 0 0 0 0 0 0 0 0 0
0 0 0 0 0 0 0 0 0 0 0 0 0 0 0 0 0 0 0 0 0 1 3 5 8 9 8 6 4 2 1 0 0 0 0 0 0 0 0 0 0 0 0 0
0 0 0 0 0 0 0 0 0 0 0 0 0 0 0 1 1 0 0 0 0 1 4 9 12 10 8 7 5 3 2 1 0 0 0 0 0 0 0 0 0 0 0 0
0 0 0 0 0 0 0 0 0 0 0 0 0 0 0 1 1 0 0 0 0 1 4 9 12 10 7 6 6 4 2 1 0 0 0 0 0 0 0 0 0 0 0 0
0 0 0 0 0 0 0 0 0 0 0 0 0 0 0 1 1 0 0 0 0 0 2 6 10 9 6 6 6 4 2 1 0 0 0 0 0 0 0 0 0 0 0 0
0 0 0 0 0 0 0 0 0 0 0 0 0 0 0 0 0 0 0 0 0 0 1 4 7 8 6 6 7 6 4 1 0 0 0 0 0 0 0 0 0 0 0 0
0 0 0 0 0 0 0 0 0 0 0 0 0 0 0 0 0 0 0 0 0 0 1 2 3 5 6 7 9 10 7 2 0 0 0 0 0 0 0 0 0 0 0 0
0 0 0 0 0 0 0 0 0 0 0 0 0 0 0 0 0 0 0 0 0 0 0 1 1 3 4 5 7 9 6 2 0 1 0 0 0 0 0 0 0 0 0 0
0 0 0 0 0 0 0 0 0 0 0 0 0 0 0 0 0 0 0 0 0 0 0 0 0 1 2 3 4 5 4 1 0 0 0 0 0 0 0 0 0 0 0 0
0 0 0 0 0 0 0 0 0 0 0 0 0 0 0 0 0 0 0 0 0 0 0 0 0 0 0 1 3 3 2 1 0 0 0 0 0 0 0 0 0 0 0 0
0 0 0 0 0 0 0 0 0 0 0 0 0 0 0 0 0 0 0 0 0 0 0 0 0 0 0 1 2 1 1 0 0 0 0 0 0 0 0 0 0 0 0 0
0 0 0 0 0 0 0 0 0 0 0 0 0 0 0 0 0 0 0 0 0 0 0 0 0 0 0 0 0 0 0 0 0 0 0 0 0 0 0 0 0 0 0 0
0 0 0 0 0 0 0 0 0 0 0 0 0 0 0 0 0 0 0 0 0 0 0 0 0 0 0 0 0 0 0 0 0 0 0 0 0 0 0 0 0 0 0 0
0 0 0 0 0 0 0 0 0 0 0 0 0 0 0 0 0 0 0 0 0 0 0 0 0 0 0 0 0 0 0 0 0 0 0 0 0 0 0 0 0 0 0 0
0 0 0 0 0 0 0 0 0 0 0 0 0 0 0 0 0 0 0 0 0 0 0 0 0 0 0 0 0 0 0 0 0 0 0 0 0 0 0 0 0 0 0 0
0 0 0 0 0 0 0 0 0 0 0 0 0 0 0 0 0 0 0 0 0 0 0 0 0 0 0 0 0 0 0 0 0 0 0 0 0 0 0 0 0 0 0 0
0 0 0 0 0 0 0 0 0 0 0 0 0 0 0 0 0 0 0 0 0 0 0 0 0 0 0 0 0 0 0 0 0 0 0 0 0 0 0 0 0 0 0 0
0 0 0 0 0 0 0 0 0 0 0 0 0 0 0 0 0 0 0 0 0 0 0 0 0 0 0 0 0 0 0 0 0 0 0 0 0 0 0 0 0 0 0 0
0 0 0 0 0 0 0 0 0 0 0 0 0 0 0 0 0 0 0 0 0 0 0 0 0 0 0 0 0 0 0 0 0 0 0 0 0 0 0 0 0 0 0 0
0 0 0 0 0 0 0 0 0 0 0 0 0 0 0 0 0 0 0 0 0 0 0 0 0 0 0 0 0 0 0 0 0 0 0 0 0 0 0 0 0 0 0 0
0 0 0 0 0 0 0 0 0 0 0 0 0 0 0 0 0 0 0 0 0 0 0 0 0 0 0 0 0 0 0 0 0 0 0 0 0 0 0 0 0 0 0 0
Wind_Speed
9 7 7 9 10 8 10 11 12 11 10 7 4 3 4 6 8 9 10 10 10 9 8 8 8 7 7 7 6 6 7 8 8 8 8 9 9 9 9 10 10 10 11 11
11 10 9 11 11 10 9 9 10 10 9 4 0 3 5 6 8 10 10 11 11 10 9 9 8 8 7 7 6 6 7 8 8 8 9 9 9 9 10 10 10 11 11 11
11 8 8 10 7 6 6 6 8 9 7 2 2 4 5 7 9 10 10 10 10 10 10 9 8 8 8 7 6 6 7 8 8 8 9 9 9 10 10 10 10 10 11 11
10 8 11 5 0 4 7 8 7 8 7 5 4 3 5 7 9 10 10 10 10 10 10 9 9 9 8 7 7 7 7 7 8 8 9 9 9 10 10 10 10 10 10 11
8 10 10 7 3 4 6 8 5 5 6 5 2 5 9 9 11 11 11 10 10 10 10 9 9 9 8 8 7 8 8 7 7 8 8 9 9 10 9 9 10 10 10 10
6 8 8 3 5 1 5 7 4 3 6 6 4 8 6 2 7 11 12 10 10 10 10 9 10 9 9 9 8 8 8 7 7 7 8 9 9 10 9 9 10 10 10 10
7 8 7 4 4 3 6 6 11 9 9 9 8 10 10 7 6 9 10 10 10 10 11 11 10 10 10 9 9 8 7 6 7 7 8 9 9 9 9 10 10 11 11 11
5 7 3 7 2 5 8 11 12 12 12 11 11 13 13 11 9 9 9 9 10 10 11 10 10 11 11 10 8 7 6 7 8 8 8 8 8 9 10 10 11 11 11 11
5 5 5 6 7 9 10 11 12 13 13 13 12 12 12 11 10 9 9 8 8 10 10 9 10 11 11 9 8 7 7 8 8 8 8 8 9 10 10 9 9 9 9 9
7 5 4 8 10 10 10 10 11 11 11 10 10 10 10 9 9 8 7 6 7 8 9 9 10 11 11 9 8 8 9 9 8 8 9 9 8 9 9 8 8 8 8 9
8 4 1 8 11 11 10 10 10 10 11 11 10 10 10 9 9 8 7 6 5 5 7 8 8 9 9 9 9 9 10 9 9 9 8 8 8 8 9 9 8 9 10 9
3 6 5 6 8 9 9 11 12 12 13 13 13 12 12 10 10 9 8 7 6 5 5 6 6 7 8 9 10 10 9 9 8 8 7 7 8 9 11 13 11 12 14 14
2 5 7 6 8 9 9 10 11 12 12 12 13 13 12 11 10 10 9 9 7 6 5 5 6 6 7 8 10 11 11 10 8 8 7 8 8 9 9 9 15 17 18 17
5 6 8 7 8 9 10 10 10 11 12 12 12 12 12 12 11 11 11 10 9 8 7 7 7 7 7 7 9 11 12 11 10 8 8 8 8 8 8 9 9 8 10 16
9 8 9 8 8 9 10 11 11 12 13 13 12 12 12 12 11 11 10 10 10 10 10 10 10 10 8 8 10 12 12 10 9 8 8 8 8 8 9 9 9 9 8 7
10 9 9 9 10 11 12 12 12 12 12 12 12 12 12 11 11 11 11 12 12 13 13 13 13 12 11 10 11 11 11 12 10 8 8 8 7 8 8 9 9 8 8 8
8 8 8 9 10 10 11 11 11 11 12 12 12 12 12 12 12 12 13 13 13 13 13 13 13 14 14 12 12 11 11 9 11 10 9 8 7 8 8 8 8 8 8 6
8 7 6 7 8 9 11 11 11 12 12 12 12 12 12 12 12 13 14 14 15 14 13 14 15 16 16 14 11 10 10 9 8 9 8 7 7 7 7 7 8 9 8 6
5 5 6 7 7 8 10 11 12 12 11 11 12 12 12 12 12 13 14 15 15 14 14 17 17 17 16 13 10 9 10 10 8 7 6 5 6 7 7 7 8 8 8 7
4 5 7 8 9 10 11 11 11 11 11 12 12 12 13 13 14 14 15 14 12 13 15 17 18 16 14 11 9 9 9 8 8 6 6 5 6 6 7 7 7 7 7 7
6 7 9 10 11 11 11 11 11 12 12 12 12 13 13 14 14 14 14 13 13 13 15 15 13 12 12 11 10 9 7 6 5 5 4 4 5 6 6 7 6 7 7 7
8 9 11 11 12 12 11 12 12 13 13 12 13 14 14 14 15 14 14 11 12 11 12 13 12 12 13 13 9 7 5 5 4 3 3 4 5 5 6 6 6 6 6 6
9 10 11 12 12 13 13 13 14 13 13 13 14 15 14 14 12 13 13 10 11 12 12 11 12 13 13 10 7 6 5 4 3 3 3 4 5 5 6 6 6 6 6 6
11 11 12 12 13 14 14 14 14 12 14 14 14 14 13 12 11 11 11 10 10 10 11 9 9 11 10 7 7 5 4 3 3 3 3 4 4 5 5 6 6 6 6 7
12 12 13 13 13 12 13 14 14 13 14 12 13 14 12 10 11 11 11 12 10 9 9 7 8 9 8 6 6 6 5 5 4 4 4 4 5 5 5 6 6 6 6 6
12 12 11 12 12 11 12 11 11 10 11 11 11 11 10 10 11 10 9 10 11 8 7 7 7 7 7 6 6 5 5 5 4 4 5 5 6 6 6 6 8 6 6 6
13 12 10 10 10 10 10 10 11 11 11 11 11 11 11 11 10 10 10 8 7 7 6 6 6 6 6 6 6 6 6 6 6 6 6 6 6 6 6 7 6 6 6 6
Wind_Direction
276 285 279 283 285 267 255 275 286 297 299 306 306 253 227 210 203 201 199 200 205 209 208 210 213 217 226 237 245 255 263 271 275 277 279 279 278 277 278 277 277 279 281 280
268 265 268 273 276 277 270 267 272 281 286 306 318 215 216 212 212 212 213 213 213 215 216 215 215 218 222 229 238 244 258 271 279 282 282 281 280 279 279 278 280 282 279 279
270 267 263 262 263 272 269 266 274 286 308 352 237 226 238 232 225 227 227 222 220 220 220 218 215 214 218 224 233 243 254 267 276 279 282 284 285 285 283 284 283 280 278 277
269 266 260 274 319 284 285 286 276 279 289 280 270 272 258 248 242 236 233 230 225 225 221 216 211 206 211 217 225 241 254 267 276 280 282 284 284 283 285 285 284 281 279 279
268 261 258 260 224 245 274 287 296 286 289 275 249 258 248 228 229 238 239 233 231 230 227 214 209 203 203 217 228 241 253 264 274 281 285 286 284 286 288 287 283 280 277 277
248 271 275 314 58 18 275 270 13 330 301 296 233 272 298 295 220 229 235 233 229 226 223 208 203 198 205 220 229 240 253 263 273 277 281 283 285 286 286 284 280 281 281 279
248 256 263 29 56 222 258 356 2 337 316 303 268 277 306 304 254 237 236 234 229 225 220 210 197 193 208 222 231 241 252 259 263 269 274 276 279 279 280 280 282 282 283 280
249 263 299 68 7 327 348 341 334 327 319 310 293 285 290 288 276 263 254 244 231 223 224 211 196 195 209 220 227 235 245 253 260 265 273 278 276 276 276 278 277 275 276 278
285 300 27 28 5 1 345 328 326 323 319 313 300 293 295 294 289 280 270 262 248 234 230 215 202 202 213 216 214 220 232 245 254 261 265 269 271 273 271 266 268 277 281 284
276 279 26 42 30 13 1 346 339 336 333 329 321 320 322 324 325 320 307 289 267 251 242 225 209 208 213 209 205 214 227 237 245 254 259 259 262 266 269 271 272 276 278 281
261 295 26 64 26 13 17 18 16 19 20 14 10 8 5 4 1 353 345 331 302 268 254 244 223 215 211 204 202 217 231 237 245 252 258 268 265 264 269 272 281 285 289 288
349 37 357 41 27 24 34 35 32 30 32 31 28 25 24 24 19 12 6 356 339 311 286 268 242 225 215 210 206 215 230 237 243 247 251 258 267 267 235 234 247 243 248 261
1 49 70 78 49 35 38 37 37 35 30 26 24 19 19 18 16 13 9 3 351 334 314 290 268 253 238 224 218 218 231 239 243 249 252 252 259 270 278 251 228 233 239 241
116 110 85 64 52 39 34 31 32 33 27 23 18 13 10 7 7 6 4 357 350 341 327 312 296 282 268 245 233 233 237 238 237 245 250 256 261 267 272 280 286 276 242 229
92 93 91 75 53 39 29 22 19 18 12 8 6 3 0 357 354 354 353 350 347 338 334 325 314 306 297 272 253 245 244 244 238 243 248 253 259 264 268 272 276 282 289 263
102 88 72 56 38 24 15 10 5 359 355 351 351 350 348 345 344 347 348 347 341 336 332 326 319 316 309 288 269 257 248 245 243 245 248 251 253 260 266 271 275 279 281 285
92 69 48 32 19 8 360 353 346 342 340 339 339 339 340 340 340 345 344 342 336 329 326 328 327 326 315 297 279 269 263 245 213 233 244 250 258 264 269 274 280 282 282 288
73 57 33 10 357 347 342 340 337 334 332 331 331 332 334 335 336 337 336 333 328 324 329 333 335 326 311 299 287 276 268 261 245 237 239 243 255 264 272 278 281 283 286 280
56 33 11 356 344 335 333 333 332 330 328 326 325 325 325 326 329 328 329 326 321 323 336 335 330 314 310 306 297 278 268 262 254 246 244 238 245 261 270 276 282 286 289 293
20 0 347 340 340 336 331 330 328 326 325 323 321 320 321 323 324 323 323 318 322 333 332 330 321 315 315 319 316 293 279 269 260 252 250 256 261 270 278 283 288 291 294 295
339 334 333 335 334 330 327 325 322 320 319 317 315 315 317 318 318 318 317 316 326 335 329 317 313 323 329 334 312 295 288 277 268 264 267 273 280 286 290 295 299 300 300 299
326 325 325 325 322 319 318 314 310 310 312 313 312 313 312 312 314 315 312 315 322 339 328 321 326 346 338 319 303 298 294 289 284 280 279 287 291 294 292 297 302 303 304 306
315 314 312 312 311 309 306 304 305 308 309 309 307 306 307 310 310 309 311 324 327 337 324 325 344 339 324 312 312 313 311 310 306 298 298 298 296 296 298 304 308 309 310 312
306 304 303 302 302 299 298 302 305 304 302 299 297 302 305 304 307 313 318 325 331 330 322 341 343 333 319 318 326 333 335 334 327 316 310 304 301 307 316 316 314 315 312 313
300 299 296 297 295 296 301 301 299 297 296 299 303 307 307 310 314 317 319 320 327 323 324 345 354 342 332 346 353 356 356 2 353 334 330 330 332 332 326 320 324 320 316 319
293 291 295 295 294 291 290 293 296 301 303 304 306 309 314 315 315 317 315 320 329 335 335 346 356 358 0 6 11 7 2 1 357 355 350 341 338 334 328 329 325 319 316 316
286 285 282 281 284 289 296 299 300 302 304 306 310 314 313 313 316 320 323 330 340 349 4 10 10 9 12 18 18 12 10 7 2 356 349 346 341 337 335 329 324 321 317 317